Location: Mohawk View
(42.7837°N, 73.7885°W)
Time: 12:53:00
(UTC+00:00)

NPP - Pass Details

Date: 17 June 2021
Orbit: 826 x 828 km, 98.7° (Epoch: 27 July)

Event Time Altitude Azimuth Distance (km) Brightness Sun altitude
Rises 07:26:44 0° 6° (N) 3,377 7.9 -15.3°
Reaches altitude 10° 07:29:13 10° 359° (N) 2,440 6.9 -15.0°
Maximum altitude 07:34:12 40° 292° (WNW) 1,207 4.4 -14.5°
Enters shadow 07:37:31 19° 234° (SW) 1,851 4.9 -14.1°
